| time (UTC) | temp F | wind direction | speed knots | gust knots | rain 1hr in | rain 24hr in | rain mn in | humidity % | barometer mb |
| 20260506201512 | 48 | 5 | 3.5 | 7.0 | 0.02 | 0.37 | 0.16 | 19 | 1003.7 |
| 20260506200011 | 47 | 334 | 0.9 | 4.3 | 0.02 | 0.37 | 0.16 | 20 | 1003.5 |
| 20260506194504 | 48 | 16 | 2.6 | 5.2 | 0.01 | 0.36 | 0.15 | 21 | 1003.3 |
| 20260506193100 | 48 | 13 | 2.6 | 5.2 | 0.01 | 0.36 | 0.15 | 22 | 1003.3 |
| 20260506191559 | 48 | 34 | 1.7 | 5.2 | 0.02 | 0.35 | 0.14 | 23 | 1003.2 |
| 20260506190055 | 48 | 351 | 1.7 | 7.0 | 0.02 | 0.35 | 0.14 | 25 | 1003.0 |
| 20260506184524 | 49 | 9 | 3.5 | 7.8 | 0.02 | 0.35 | 0.14 | 29 | 1002.7 |
| 20260506183018 | 51 | 344 | 4.3 | 9.6 | 0.02 | 0.35 | 0.14 | 35 | 1002.5 |
| 20260506181508 | 56 | 290 | 5.2 | 7.8 | 0.00 | 0.33 | 0.12 | 27 | 1002.1 |
| 20260506180007 | 58 | 192 | 0.9 | 6.1 | 0.02 | 0.33 | 0.12 | 14 | 1001.9 |
| 20260506174505 | 58 | 228 | 0.9 | 7.0 | 0.02 | 0.33 | 0.12 | 14 | 1001.9 |
| 20260506173002 | 58 | 161 | 3.5 | 7.8 | 0.04 | 0.33 | 0.12 | 14 | 1002.1 |
| 20260506171559 | 58 | 188 | 2.6 | 7.0 | 0.05 | 0.33 | 0.12 | 14 | 1002.1 |
| 20260506170054 | 57 | 169 | 2.6 | 6.1 | 0.06 | 0.31 | 0.10 | 14 | 1002.1 |
| 20260506164551 | 57 | 180 | 4.3 | 7.8 | 0.08 | 0.31 | 0.10 | 15 | 1002.3 |
| 20260506163053 | 57 | 221 | 1.7 | 7.0 | 0.08 | 0.28 | 0.08 | 13 | 1002.3 |
| 20260506161546 | 57 | 218 | 2.6 | 7.8 | 0.07 | 0.28 | 0.07 | 12 | 1002.5 |
| 20260506160042 | 57 | 210 | 0.9 | 3.5 | 0.04 | 0.25 | 0.04 | 11 | 1002.7 |
| 20260506154540 | 57 | 171 | 3.5 | 5.2 | 0.02 | 0.23 | 0.02 | 11 | 1002.6 |
| 20260506153042 | 56 | 191 | 2.6 | 5.2 | 0.02 | 0.21 | 0.21 | 12 | 1002.6 |
| 20260506151534 | 56 | 201 | 2.6 | 7.0 | 0.04 | 0.21 | 0.21 | 12 | 1002.3 |
| 20260506150040 | 55 | 180 | 0.9 | 6.1 | 0.06 | 0.21 | 0.21 | 13 | 1002.5 |
| 20260506144550 | 55 | 174 | 0.9 | 3.5 | 0.08 | 0.21 | 0.21 | 13 | 1002.5 |
| 20260506143034 | 55 | 167 | 2.6 | 5.2 | 0.09 | 0.19 | 0.19 | 14 | 1002.8 |
| 20260506141529 | 55 | 181 | 1.7 | 6.1 | 0.08 | 0.17 | 0.17 | 14 | 1003.0 |
| 20260506140040 | 54 | 183 | 3.5 | 7.0 | 0.06 | 0.15 | 0.15 | 13 | 1003.4 |
| 20260506134532 | 54 | 172 | 5.2 | 8.7 | 0.03 | 0.12 | 0.12 | 12 | 1003.7 |
| 20260506133025 | 53 | 135 | 2.6 | 5.2 | 0.02 | 0.10 | 0.10 | 13 | 1003.6 |
| 20260506131532 | 52 | 144 | 0.0 | 0.0 | 0.01 | 0.09 | 0.09 | 16 | 1003.3 |
| 20260506130022 | 51 | 140 | 0.0 | 0.0 | 0.01 | 0.09 | 0.09 | 17 | 1003.3 |
| 20260506124520 | 51 | 144 | 0.0 | 0.0 | 0.02 | 0.09 | 0.09 | 17 | 1003.2 |
| 20260506123028 | 50 | 132 | 0.0 | 0.0 | 0.01 | 0.08 | 0.08 | 20 | 1003.4 |
| 20260506121516 | 50 | 132 | 0.0 | 0.0 | 0.03 | 0.08 | 0.08 | 20 | 1003.6 |
| 20260506120024 | 49 | 25 | 0.0 | 0.0 | 0.04 | 0.08 | 0.08 | 23 | 1003.4 |
| 20260506114519 | 49 | 78 | 0.0 | 0.0 | 0.03 | 0.07 | 0.07 | 23 | 1003.9 |
| 20260506113014 | 49 | 5 | 0.0 | 0.0 | 0.04 | 0.07 | 0.07 | 25 | 1004.2 |
| 20260506111511 | 49 | 5 | 0.0 | 0.0 | 0.02 | 0.05 | 0.05 | 26 | 1004.1 |
| 20260506110010 | 49 | 341 | 0.0 | 2.6 | 0.02 | 0.04 | 0.04 | 28 | 1004.1 |
| 20260506104508 | 49 | 14 | 0.0 | 3.5 | 0.02 | 0.04 | 0.04 | 29 | 1003.9 |
| 20260506103008 | 49 | 318 | 0.0 | 3.5 | 0.02 | 0.03 | 0.03 | 30 | 1003.7 |
| 20260506101505 | 49 | 349 | 0.9 | 3.5 | 0.02 | 0.03 | 0.03 | 33 | 1003.7 |
| 20260506100015 | 49 | 286 | 0.0 | 0.0 | 0.01 | 0.02 | 0.02 | 35 | 1003.8 |
| 20260506094502 | 49 | 19 | 0.0 | 0.0 | 0.01 | 0.02 | 0.02 | 37 | 1003.8 |
| 20260506093001 | 49 | 66 | 0.0 | 1.7 | 0.00 | 0.08 | 0.01 | 38 | 1003.7 |
| 20260506091557 | 49 | 52 | 0.0 | 1.7 | 0.00 | 0.08 | 0.01 | 39 | 1003.5 |
| 20260506090057 | 49 | 14 | 0.0 | 2.6 | 0.00 | 0.08 | 0.01 | 41 | 1003.5 |
| 20260506084559 | 49 | 333 | 0.9 | 3.5 | 0.00 | 0.08 | 0.01 | 42 | 1003.5 |
| 20260506083058 | 49 | 346 | 0.9 | 3.5 | 0.00 | 0.08 | 0.01 | 44 | 1003.6 |
| 20260506081607 | 49 | 34 | 2.6 | 7.0 | 0.00 | 0.08 | 0.01 | 45 | 1004.0 |
| 20260506073043 | 50 | 13 | 2.6 | 5.2 | 0.00 | 0.08 | 0.01 | 54 | 1004.3 |
| 20260506071543 | 50 | 346 | 1.7 | 5.2 | 0.00 | 0.08 | 0.01 | 56 | 1004.4 |
| 20260506061543 | 51 | 346 | 0.0 | 0.0 | 0.00 | 0.08 | 0.01 | 60 | 1004.8 |
| 20260506044531 | 53 | 341 | 0.0 | 0.0 | 0.00 | 0.08 | 0.01 | 69 | 1005.7 |
| 20260506043022 | 54 | 341 | 0.0 | 0.0 | 0.00 | 0.08 | 0.01 | 70 | 1005.8 |
| 20260506041521 | 54 | 350 | 0.0 | 0.0 | 0.00 | 0.08 | 0.01 | 70 | 1005.9 |
| 20260506040018 | 54 | 30 | 0.0 | 0.9 | 0.00 | 0.08 | 0.01 | 71 | 1005.8 |
| 20260506034516 | 54 | 28 | 0.0 | 2.6 | 0.00 | 0.08 | 0.01 | 71 | 1006.2 |
| 20260506033023 | 54 | 49 | 0.0 | 0.0 | 0.00 | 0.08 | 0.01 | 70 | 1006.1 |
| 20260506031527 | 54 | 74 | 0.0 | 0.9 | 0.00 | 0.08 | 0.01 | 70 | 1006.1 |
| 20260506030045 | 55 | 11 | 0.0 | 0.9 | 0.00 | 0.08 | 0.01 | 69 | 1006.1 |
| 20260506024550 | 55 | 336 | 1.7 | 4.3 | 0.00 | 0.08 | 0.01 | 69 | 1006.1 |
| 20260506023040 | 55 | 330 | 2.6 | 8.7 | 0.00 | 0.08 | 0.01 | 68 | 1005.9 |
| 20260506021539 | 55 | 22 | 3.5 | 7.0 | 0.00 | 0.08 | 0.01 | 69 | 1005.9 |
| 20260506020037 | 56 | 38 | 0.9 | 7.8 | 0.00 | 0.08 | 0.01 | 68 | 1006.0 |
| 20260506014534 | 56 | 50 | 3.5 | 11.3 | 0.00 | 0.08 | 0.01 | 69 | 1005.7 |
| 20260506013026 | 58 | 17 | 6.1 | 13.0 | 0.00 | 0.08 | 0.01 | 67 | 1005.3 |
| 20260506011523 | 60 | 343 | 0.0 | 0.0 | 0.00 | 0.08 | 0.01 | 57 | 1004.7 |
| 20260506010044 | 60 | 186 | 0.9 | 2.6 | 0.00 | 0.08 | 0.01 | 62 | 1004.3 |
| 20260506004516 | 61 | 162 | 0.9 | 2.6 | 0.00 | 0.08 | 0.01 | 67 | 1004.0 |
| 20260506003011 | 61 | 200 | 0.0 | 5.2 | 0.00 | 0.08 | 0.01 | 68 | 1003.7 |
| 20260506001509 | 62 | 200 | 1.7 | 3.5 | 0.00 | 0.08 | 0.01 | 69 | 1003.4 |
| 20260506000013 | 62 | 176 | 0.9 | 3.5 | 0.00 | 0.08 | 0.01 | 70 | 1003.4 |
| 20260505234508 | 62 | 184 | 2.6 | 4.3 | 0.00 | 0.08 | 0.01 | 70 | 1003.5 |
| 20260505233008 | 63 | 152 | 1.7 | 6.1 | 0.00 | 0.08 | 0.01 | 70 | 1003.2 |
| 20260505231509 | 63 | 176 | 1.7 | 4.3 | 0.00 | 0.08 | 0.01 | 70 | 1002.9 |
| 20260505230004 | 63 | 195 | 1.7 | 5.2 | 0.00 | 0.08 | 0.01 | 70 | 1002.9 |
| 20260505224503 | 63 | 185 | 1.7 | 6.1 | 0.00 | 0.08 | 0.01 | 70 | 1002.7 |
| 20260505223001 | 63 | 190 | 2.6 | 5.2 | 0.00 | 0.08 | 0.01 | 69 | 1002.7 |
| 20260505221601 | 63 | 180 | 2.6 | 6.1 | 0.00 | 0.08 | 0.01 | 69 | 1002.6 |
| 20260505221502 | 63 | 181 | 2.6 | 6.1 | 0.00 | 0.08 | 0.01 | 69 | 1002.6 |
| 20260505220100 | 62 | 198 | 2.6 | 8.7 | 0.00 | 0.08 | 0.01 | 70 | 1002.9 |
| 20260505214632 | 62 | 132 | 5.2 | 11.3 | 0.00 | 0.08 | 0.01 | 70 | 1003.0 |
| 20260505213059 | 62 | 184 | 2.6 | 5.2 | 0.00 | 0.08 | 0.01 | 68 | 1003.0 |
| 20260505211555 | 62 | 180 | 3.5 | 7.0 | 0.01 | 0.08 | 0.01 | 69 | 1002.9 |
| 20260505210053 | 62 | 137 | 5.2 | 9.6 | 0.01 | 0.08 | 0.01 | 69 | 1003.4 |
| 20260505204550 | 62 | 244 | 7.0 | 18.2 | 0.01 | 0.08 | 0.01 | 69 | 1002.9 |
| 20260505203044 | 65 | 24 | 6.1 | 13.9 | 0.01 | 0.08 | 0.01 | 68 | 1002.4 |